Regional Weather Roundup
Issued by NWS Sioux Falls, SD

Home | Current Version | Previous Version | Graphics & Text | Print | Product List | Glossary Off
Versions: 1 2 3 4 5 6 7 8 9 10 11 12 13 14 15 16 17 18 19 20 21 22 23 24 25 26 27 28 29 30 31 32 33 34 35 36 37 38 39 40 41 42 43 44 45 46 47 48 49 50

000
ASUS43 KFSD 281602
RWRFSD

WEATHER ROUNDUP FOR SE SOUTH DAKOTA/SW MINNESOTA/NW IOWA
NATIONAL WEATHER SERVICE SIOUX FALLS SD
1100 AM CDT THU AUG 28 2014

NOTE: "FAIR" INDICATES FEW OR NO CLOUDS BELOW 12,000 FEET WITH NO
SIGNIFICANT WEATHER AND OR OBSTRUCTIONS TO VISIBILITY.


SDZ038>040-050-052>070-281700-
SOUTHEAST SOUTH DAKOTA

CITY           SKY/WX    TMP DP  RH WIND       PRES   REMARKS
CHAMBERLAIN    CLOUDY    69  67  96 SE10      29.90S
HURON          LGT RAIN  68  67  96 SE8       29.91S
MADISON        RAIN      66  66 100 SE7       29.96S
MITCHELL       CLOUDY    71  69  93 SE12      29.92S
SIOUX FALLS    LGT RAIN  70  66  87 SE13      29.95S
WINNER         CLOUDY    72  66  81 CALM      29.91S
YANKTON        CLOUDY    70  66  88 SE12      29.92F
$$

MNZ071-072-080-081-089-090-097-098-281700-
SOUTHWEST MINNESOTA

CITY           SKY/WX    TMP DP  RH WIND       PRES   REMARKS
FAIRMONT       CLOUDY    63  61  94 SE9       30.01F
JACKSON        DRIZZLE   64  63  94 SE9       30.01R
LUVERNE        CLOUDY    68  64  88 SE9       29.98S
MARSHALL       CLOUDY    66  61  82 SE12      29.98F
MONTEVIDEO     CLOUDY    66  63  88 S9        30.01S
PIPESTONE      LGT RAIN  66  64  94 SE9       29.98S
REDWOOD FALLS  LGT RAIN  65  63  93 SE12      30.01S
TRACY          DRIZZLE   67  65  94 SE8       30.00S
WINDOM         RAIN      64  63  94 E9        30.00F
WORTHINGTON    CLOUDY    66  64  94 SE7       30.00S
$$

IAZ001>003-012>014-020>022-031-032-NEZ013-014-SDZ071-281700-
NORTHWEST IOWA

CITY           SKY/WX    TMP DP  RH WIND       PRES   REMARKS
DENISON        CLOUDY    72  70  94 SE10G18   29.94R
ESTHERVILLE    LGT RAIN  65  64  97 SE10      30.00S
LE MARS        CLOUDY    72  68  88 SE10      29.95S
ORANGE CITY    DRIZZLE   70  66  88 SE7       29.97S
SHELDON        CLOUDY    68  66  94 SE10G17   29.96F
SIOUX CITY     CLOUDY    73  69  87 SE8       29.94R
SPENCER        CLOUDY    67  65  93 SE13      29.99S
STORM LAKE     CLOUDY    66  66 100 SE10      29.98S FOG
$$

ABBREVIATIONS USED IN REMARKS
   TC - TEMPERATURE IN CELSIUS
  WCI - WIND CHILL INDEX
   HX - HEAT INDEX
  VSB - VISIBILITY



USA.gov is the U.S. government's official web portal to all federal, state and local government web resources and services.